Погода в Балкашине

Казахстан     52°31′14″N   68°45′12″E
темп.,
°C
ветер,
м/с
пор.,
м/с
влажн.,
%
обл.,
%
осадки,
мм/ч
давл.,
гПа
погр.,
м
2 марта, вт
вт200:00−19зсз1210075 0.0 101820
03:00−20зюз1210041 0.0 101920
06:00−20зюз2210064 0.0 101920
09:00−17юз229894 0.1 101869
12:00−14юз349393 0.2 1017248
15:00−12юз4594100 0.1 1016333
18:00−12юз4794100 0.2 1016411
21:00−16юз4998100 0.1 1017215
3 марта, ср
ср300:00−18юз51099100 0.1 1017243
03:00−20ююз510100100 0.1 1017237
06:00−22ююз511100100 0.1 1018236
09:00−20ююз61199100 0.0 1017302
12:00−14ююз81396100 0.1 1016423
15:00−10ююз91493100 0.1 1015613
18:00−7юз91692100 0.3 1013819
21:00−5юз81594100 0.3 1012906
4 марта, чт
чт400:00−3юз91595100 0.8 1011975
03:00−3юз91596100 0.9 1009884
06:00−2ююз91696100 1.9 1009972
09:00−2юз101795100 1.1 10071066
12:00−2ююз101696100 2.0 1007954
15:00−1юз101593100 0.9 10051117
18:00−2юз101494100 1.8 10051041
21:00−3юз81493100 0.4 1006695
5 марта, пт
пт500:00−8з61392100 1.2 1009476
03:00−12з5129796 0.1 1012275
06:00−15юз4119897 0.1 1016198
09:00−15ююз6149567 0.0 1017305
12:00−9юз11199283 0.0 1017682
15:00−6юз122091100 0.4 1016794
18:00−5юз121990100 0.5 1016926
21:00−6юз111992100 0.4 1016955
6 марта, сб
сб600:00−6юз111892100 0.8 1016880
03:00−6юз101794100 0.7 1015756
06:00−7юз91594100 1.6 1015613
09:00−7юз81495100 0.6 1016530
12:00−5зюз71194100 1.0 1017583
15:00−4юз6994100 0.3 1018526
18:00−5зюз4795100 0.4 1018420
21:00−6ююз3697100 0.1 1018228